Rotterdam, Netherlands

1:31 AM CEST on September 25, 2016 (GMT +0200)
Rotterdam

Weather History for EHRD - March, 2013

Change the Weather History Date:

Tuesday, March 26, 2013

  Actual Average Record
Temperature  
Mean Temperature 34 °F -  
Max Temperature 42 °F 52 °F 62 °F (2003)
Min Temperature 26 °F 38 °F 26 °F (2004)
Degree Days  
Heating Degree Days 31    
Moisture  
Dew Point 16 °F    
Average Humidity 48    
Maximum Humidity 64    
Minimum Humidity 22    
Precipitation  
Precipitation 0.00 in - - ()
Sea Level Pressure  
Sea Level Pressure 29.93 in    
Wind  
Wind Speed 14 mph ()    
Max Wind Speed 23 mph    
Max Gust Speed -    
Visibility 6.9 miles    
Events      
Averages and records for this station are not official NWS values.
T = Trace of Precipitation, MM = Missing Value Source: Averaged Metar Reports

Daily Weather History Graph

Daily Weather History Graph

Search for Another Location

Airport or City:

Trip Planner

Search our weather history database for the weather conditions in past years. The results will help you decide how hot, cold, wet, or windy it might be!

Date:

Astronomy

Mar. 26, 2013 Rise Set
Actual Time 6:30 AM CET 7:05 PM CET
Civil Twilight 5:57 AM CET 7:39 PM CET
Nautical Twilight 5:16 AM CET 8:20 PM CET
Astronomical Twilight 4:33 AM CET 9:03 PM CET
Moon 6:25 PM CET (3/26) 5:43 AM CET (3/26)
Length of Visible Light 13h 42m
Length of Day
12h 35m
Waxing Gibbous, 99% of the Moon is Illuminated
Mar 26
Waxing Gibbous
Mar 27
Full
Apr 3
Last Quarter
Apr 10
New
Apr 18
First Quarter

Hourly Weather History & Observations

Time (CET) Temp. Windchill Dew Point Humidity Pressure Visibility Wind Dir Wind Speed Gust Speed Precip Events Conditions
12:25 AM 30.2 °F 19.8 °F 15.8 °F 55% 29.95 in 6.2 mi East 13.8 mph - N/A   Unknown
12:55 AM 30.2 °F 19.3 °F 15.8 °F 55% 29.95 in 6.2 mi ENE 15.0 mph - N/A   Unknown
1:00 AM 29 °F - 17 °F 47% 29.97 in 19 mi ENE 13.4 mph - -   Partly Cloudy
1:25 AM 30.2 °F 18.9 °F 15.8 °F 55% 29.95 in 6.2 mi ENE 16.1 mph - N/A   Unknown
1:55 AM 28.4 °F 18.0 °F 17.6 °F 64% 29.95 in 6.2 mi ENE 12.7 mph - N/A   Unknown
2:25 AM 30.2 °F 19.8 °F 15.8 °F 55% 29.95 in 6.2 mi ENE 13.8 mph - N/A   Unknown
2:55 AM 28.4 °F 17.5 °F 15.8 °F 59% 29.95 in 6.2 mi East 13.8 mph - N/A   Unknown
3:25 AM 28.4 °F 17.5 °F 15.8 °F 59% 29.95 in 6.2 mi ENE 13.8 mph - N/A   Unknown
3:55 AM 28.4 °F 17.0 °F 15.8 °F 59% 29.95 in 6.2 mi ENE 15.0 mph - N/A   Unknown
4:00 AM 28 °F - 16 °F 47% 29.96 in 22 mi ENE 13.4 mph - -   Partly Cloudy
4:25 AM 28.4 °F 17.5 °F 15.8 °F 59% 29.95 in 6.2 mi ENE 13.8 mph - N/A   Unknown
4:55 AM 28.4 °F 17.0 °F 15.8 °F 59% 29.95 in 6.2 mi ENE 15.0 mph - N/A   Unknown
5:25 AM 28.4 °F 17.0 °F 15.8 °F 59% 29.95 in 6.2 mi ENE 15.0 mph - N/A   Unknown
5:55 AM 26.6 °F 14.3 °F 15.8 °F 64% 29.95 in 6.2 mi ENE 16.1 mph - N/A   Unknown
6:25 AM 26.6 °F 15.2 °F 15.8 °F 64% 29.95 in 6.2 mi ENE 13.8 mph - N/A   Unknown
6:55 AM 26.6 °F 15.2 °F 15.8 °F 64% 29.95 in 6.2 mi ENE 13.8 mph - N/A   Unknown
7:00 AM 27 °F - 15 °F 49% 29.97 in 22 mi ENE 13.4 mph - -   Partly Cloudy
7:25 AM 28.4 °F 17.0 °F 15.8 °F 59% 29.98 in 6.2 mi ENE 15.0 mph - N/A   Unknown
7:55 AM 28.4 °F 17.0 °F 15.8 °F 59% 29.98 in 6.2 mi East 15.0 mph - N/A   Unknown
8:25 AM 28.4 °F 15.8 °F 15.8 °F 59% 29.98 in 6.2 mi ENE 18.4 mph - N/A   Unknown
8:55 AM 30.2 °F 17.4 °F 15.8 °F 55% 29.95 in 6.2 mi East 20.7 mph - N/A   Unknown
9:25 AM 30.2 °F 17.8 °F 15.8 °F 55% 29.95 in 6.2 mi East 19.6 mph - N/A   Unknown
9:55 AM 32.0 °F 20.1 °F 17.6 °F 55% 29.95 in 6.2 mi East 19.6 mph - N/A   Unknown
10:00 AM 32 °F - 17 °F 40% 29.97 in 15 mi East 17.9 mph - -   Scattered Clouds
10:25 AM 33.8 °F 22.8 °F 17.6 °F 52% 29.95 in 6.2 mi East 18.4 mph - N/A   Unknown
10:55 AM 33.8 °F 22.8 °F 15.8 °F 48% 29.95 in 6.2 mi East 18.4 mph - N/A   Unknown
11:25 AM 35.6 °F 24.5 °F 17.6 °F 48% 29.95 in 6.2 mi East 20.7 mph - N/A   Unknown
11:55 AM 37.4 °F 26.4 °F 15.8 °F 41% 29.95 in 6.2 mi East 23.0 mph - N/A   Unknown
12:25 PM 37.4 °F 27.2 °F 14.0 °F 38% 29.92 in 6.2 mi East 19.6 mph - N/A   Unknown
12:55 PM 39.2 °F 29.3 °F 15.8 °F 39% 29.92 in 6.2 mi East 20.7 mph - N/A   Unknown
1:00 PM 39 °F - 15 °F 25% 29.94 in 22 mi East 20.1 mph - -   Partly Cloudy
1:25 PM 39.2 °F 29.0 °F 15.8 °F 39% 29.92 in 6.2 mi ENE 21.9 mph - N/A   Unknown
1:55 PM 39.2 °F 29.3 °F 15.8 °F 39% 29.92 in 6.2 mi ENE 20.7 mph - N/A   Unknown
2:25 PM 41.0 °F 31.9 °F 15.8 °F 36% 29.92 in 6.2 mi ENE 19.6 mph - N/A   Unknown
2:55 PM 41.0 °F 31.4 °F 14.0 °F 33% 29.89 in 6.2 mi ENE 21.9 mph - N/A   Unknown
3:25 PM 42.8 °F 34.5 °F 15.8 °F 34% 29.89 in 6.2 mi ENE 18.4 mph - N/A   Unknown
3:55 PM 41.0 °F 32.5 °F 15.8 °F 36% 29.89 in 6.2 mi ENE 17.3 mph - N/A   Unknown
4:00 PM 41 °F - 15 °F 22% 29.91 in 19 mi East 17.9 mph - -  
4:25 PM 41.0 °F 33.1 °F 15.8 °F 36% 29.89 in 6.2 mi East 15.0 mph - N/A   Unknown
4:55 PM 41.0 °F 32.5 °F 14.0 °F 33% 29.89 in 6.2 mi ENE 17.3 mph - N/A   Unknown
5:25 PM 41.0 °F 32.5 °F 14.0 °F 33% 29.89 in 6.2 mi East 17.3 mph - N/A   Unknown
5:55 PM 39.2 °F 30.2 °F 15.8 °F 39% 29.89 in 6.2 mi ENE 17.3 mph - N/A   Unknown
6:25 PM 39.2 °F 30.5 °F 14.0 °F 36% 29.89 in 6.2 mi East 16.1 mph - N/A   Unknown
6:55 PM 37.4 °F 29.3 °F 15.8 °F 41% 29.89 in 6.2 mi ENE 12.7 mph - N/A   Unknown
7:00 PM 36 °F - 16 °F 31% 29.91 in 28 mi ENE 13.4 mph - -   Partly Cloudy
7:25 PM 35.6 °F 27.1 °F 15.8 °F 44% 29.92 in 6.2 mi ENE 12.7 mph - N/A   Unknown
7:55 PM 35.6 °F 27.5 °F 15.8 °F 44% 29.92 in 6.2 mi ENE 11.5 mph - N/A   Unknown
8:25 PM 33.8 °F 25.8 °F 15.8 °F 48% 29.92 in 6.2 mi ENE 10.4 mph - N/A   Unknown
8:55 PM 33.8 °F 25.8 °F 15.8 °F 48% 29.92 in 6.2 mi ENE 10.4 mph - N/A   Unknown
9:25 PM 33.8 °F 25.3 °F 15.8 °F 48% 29.92 in 6.2 mi ENE 11.5 mph - N/A   Unknown
9:55 PM 30.2 °F 21.3 °F 17.6 °F 60% 29.92 in 6.2 mi ENE 10.4 mph - N/A   Unknown
10:00 PM 32 °F - 17 °F 41% 29.94 in 28 mi ENE 11.2 mph - -  
10:25 PM 32.0 °F 22.5 °F 17.6 °F 55% 29.92 in 6.2 mi ENE 12.7 mph - N/A   Unknown
10:55 PM 32.0 °F 22.1 °F 17.6 °F 55% 29.92 in 6.2 mi East 13.8 mph - N/A   Unknown
11:25 PM 32.0 °F 23.0 °F 17.6 °F 55% 29.92 in 6.2 mi ENE 11.5 mph - N/A   Unknown
11:55 PM 30.2 °F 20.2 °F 17.6 °F 60% 29.92 in 6.2 mi East 12.7 mph - N/A   Unknown